Theta_e
309 308 308 308 307 306 307 310 311 310 311 312 311 309 309 307 306 305 305 304 303 303 306 308 310 310 313 320 323 327 330 332 333 333 333 332 332 332 332 335 334 334 332 330
308 309 307 307 308 310 310 311 311 310 311 312 310 309 307 306 307 306 306 304 303 302 302 304 307 308 309 310 315 321 324 328 329 332 333 332 332 332 332 334 335 335 335 331
307 308 307 310 309 310 310 309 310 310 309 307 307 305 304 305 305 306 305 304 302 302 302 302 304 306 308 309 310 313 318 322 326 329 331 332 332 332 332 332 334 334 333 334
310 310 308 311 311 309 312 309 309 310 308 307 306 305 306 306 305 305 303 301 303 303 303 303 305 308 308 308 308 309 313 319 323 326 330 331 331 330 330 331 332 332 334 334
309 310 310 311 310 309 310 310 310 310 308 310 309 307 306 304 306 307 305 304 303 303 303 303 304 307 309 311 310 308 309 314 320 325 328 330 330 330 330 330 330 331 332 332
309 309 309 309 309 309 308 308 306 308 305 306 306 304 304 304 307 307 305 305 305 304 305 305 309 310 310 311 311 312 311 311 317 323 326 329 329 329 329 328 328 328 329 329
312 311 310 309 310 310 307 305 306 307 308 306 306 306 305 305 306 307 307 307 306 305 305 304 304 307 310 312 312 311 311 311 313 320 324 326 328 328 329 328 327 327 326 326
311 313 310 309 309 310 307 306 307 306 307 307 307 310 308 307 304 304 306 306 304 304 304 304 305 306 309 310 311 311 310 311 311 312 315 320 324 325 326 326 325 324 324 324
310 310 309 309 308 309 311 308 305 306 295 306 306 306 306 305 306 307 307 306 305 305 305 305 306 307 308 309 310 310 310 310 310 310 311 311 313 317 320 321 321 321 320 319
311 314 309 310 309 309 309 308 310 307 306 306 306 307 307 309 309 308 307 306 305 305 305 305 306 307 309 309 309 309 309 309 309 309 309 310 310 311 311 312 313 313 314 314
309 313 311 309 310 310 310 310 308 309 308 310 307 308 304 308 308 308 308 307 306 304 304 303 305 308 307 308 308 308 308 307 307 308 308 308 309 309 310 310 311 311 311 312
309 310 311 310 308 307 308 309 308 311 309 307 309 310 306 307 306 307 308 308 305 304 303 303 304 305 305 305 305 306 307 307 306 306 306 307 308 308 308 309 309 309 309 310
311 311 311 314 311 310 309 310 308 307 306 307 310 309 305 306 308 309 308 306 303 304 304 303 303 303 303 303 303 303 304 304 305 307 307 307 307 306 307 307 307 308 308 308
312 312 313 316 314 311 314 315 313 309 309 309 309 309 306 306 309 308 305 305 304 304 303 302 302 302 302 302 302 301 302 302 302 303 304 304 305 305 305 305 305 306 306 306
312 315 314 314 313 314 314 314 315 313 310 310 312 313 312 311 309 307 306 305 304 303 303 302 301 301 301 302 302 303 303 302 301 301 301 301 301 302 302 303 303 303 304 304
311 313 312 313 310 313 313 311 310 312 313 313 313 313 309 307 305 304 305 303 303 302 302 301 301 301 301 301 301 301 302 302 302 301 299 299 299 299 300 300 301 301 302 301
310 308 309 311 306 308 310 308 309 309 309 310 310 309 306 306 306 304 304 303 303 302 301 300 299 300 300 300 300 300 300 300 301 300 300 298 297 296 296 296 298 299 299 300
305 304 304 304 300 309 305 300 302 308 306 306 306 305 304 303 302 300 301 302 301 300 299 298 299 299 299 299 299 298 297 297 297 298 298 297 295 294 295 295 295 295 296 297
303 304 301 305 294 300 302 299 299 302 301 301 303 302 301 300 298 300 299 300 300 298 298 297 297 298 297 297 295 294 295 294 294 294 294 293 293 292 291 292 293 293 293 294
304 303 304 292 296 298 297 297 296 296 296 296 298 300 302 300 301 299 299 298 298 297 295 295 296 296 295 295 293 293 293 292 292 291 290 290 290 290 290 290 291 291 292 292
307 305 308 296 299 296 296 296 297 295 296 294 299 300 299 299 298 296 297 297 297 295 294 294 295 295 294 293 292 291 291 291 291 291 290 290 289 288 289 289 290 290 290 290
305 304 303 303 304 304 295 295 298 296 298 298 299 299 299 297 295 295 294 294 293 292 292 294 293 293 293 292 290 290 289 290 289 289 289 289 289 288 288 288 288 289 288 288
299 299 297 299 301 297 295 297 296 295 296 297 298 298 295 294 293 292 292 292 292 291 292 293 292 291 291 291 289 287 289 288 289 288 288 288 288 287 287 287 287 286 286 287
293 293 296 296 296 296 295 295 296 297 297 296 295 294 293 292 290 290 290 290 290 290 291 291 289 288 287 289 287 287 286 285 283 283 285 287 287 287 286 286 286 286 286 286
292 293 292 292 294 294 293 294 294 294 293 292 290 290 290 289 289 289 288 287 288 288 288 287 286 285 284 286 286 286 284 283 282 280 281 283 284 285 285 285 285 285 285 284
292 293 295 293 294 294 293 292 291 291 290 289 289 288 288 288 288 287 286 285 284 283 282 281 281 281 282 283 283 283 282 280 279 278 279 282 283 283 284 285 285 285 285 285
Wind_Speed
2 4 6 10 6 3 6 4 2 2 1 2 5 6 11 10 6 10 10 10 11 11 18 24 25 28 35 38 38 40 41 44 43 39 37 32 32 33 34 35 35 35 36 41
5 4 6 6 4 4 3 3 2 3 1 2 4 9 9 9 11 7 9 10 10 8 10 10 15 19 24 33 39 40 43 44 45 41 43 34 36 32 36 36 36 37 38 39
6 2 8 6 4 5 3 5 4 4 1 4 5 8 6 5 4 6 6 6 7 10 10 8 8 10 16 24 31 38 44 45 46 44 35 33 27 30 33 37 36 38 38 38
3 1 6 4 4 5 4 5 4 4 3 2 2 5 6 5 10 7 10 7 7 8 5 5 9 12 10 12 17 26 31 37 41 41 37 38 36 31 36 35 43 37 39 40
5 7 5 3 5 6 5 4 3 3 4 3 3 2 7 5 6 5 8 8 8 8 7 8 10 13 14 17 13 8 15 25 32 35 37 39 32 30 28 32 32 38 41 40
3 1 4 6 3 2 8 6 7 4 3 1 5 4 5 3 1 4 5 7 8 9 9 10 16 17 16 16 16 13 7 9 19 27 32 37 36 32 29 31 32 35 36 38
2 1 0 3 6 4 4 6 2 3 3 5 1 3 8 2 3 2 4 7 8 8 9 9 11 20 21 20 19 17 14 9 7 16 23 30 35 37 37 36 33 34 34 35
7 3 7 5 6 8 6 7 5 7 4 3 1 4 5 4 6 5 5 6 8 9 7 7 11 17 21 21 21 20 18 15 11 10 16 21 27 32 35 36 35 35 35 36
6 4 1 2 3 5 5 4 4 6 3 3 4 5 5 5 8 6 7 8 9 9 8 7 10 14 17 19 20 19 19 17 14 12 13 16 21 24 28 30 32 34 35 34
7 4 1 2 3 3 3 7 4 3 2 3 3 3 5 7 5 6 9 8 7 7 9 8 14 17 19 20 20 20 19 19 19 16 15 15 16 19 22 25 29 32 33 33
5 4 1 4 6 8 3 3 3 4 5 5 2 5 4 11 8 8 5 5 6 7 8 7 13 17 18 20 23 23 21 21 22 21 19 17 17 18 19 23 26 29 30 32
6 5 4 6 2 2 2 6 6 5 5 2 3 5 7 9 8 6 3 3 5 5 5 4 9 14 20 21 23 24 24 24 23 21 21 22 22 21 22 24 26 26 28 29
7 3 3 2 2 2 4 2 4 4 4 7 6 4 4 4 5 3 6 6 5 6 7 6 9 11 15 19 25 26 26 26 26 26 26 24 23 24 26 27 28 28 29 29
4 4 4 10 3 5 5 4 4 5 3 5 6 4 7 8 8 8 7 6 6 6 7 8 11 19 25 30 29 31 32 31 32 32 31 28 27 27 26 27 28 29 28 29
4 4 3 3 2 1 4 7 6 6 4 7 3 4 3 6 7 3 3 4 6 7 9 10 10 15 23 28 33 35 35 37 38 36 33 33 32 29 29 28 27 27 28 29
0 3 3 2 3 3 3 6 5 3 2 5 3 13 8 1 7 6 6 7 8 7 8 7 7 13 19 24 27 31 33 34 35 35 34 32 31 31 30 30 30 29 28 28
6 6 4 4 1 4 6 8 8 5 5 6 7 4 4 3 5 3 5 4 3 4 5 7 8 16 22 25 24 29 31 33 34 34 34 32 31 32 32 31 30 29 28 26
6 5 2 3 2 4 3 2 2 8 5 7 6 1 4 4 3 6 4 5 2 3 4 6 12 19 23 23 25 26 29 31 31 33 34 34 33 33 32 31 31 30 29 27
2 4 3 5 3 7 6 6 6 7 7 8 7 4 4 3 2 2 6 4 2 3 8 12 16 17 20 21 22 25 30 30 31 31 32 33 34 35 33 32 30 29 29 28
3 3 4 3 5 9 4 2 6 5 6 6 6 6 3 3 1 3 5 2 1 6 11 14 16 19 21 24 24 27 30 30 31 31 33 33 31 30 31 30 29 26 24 25
5 2 8 4 3 7 7 5 3 6 6 3 6 5 4 3 4 3 1 3 5 7 13 14 16 18 23 23 24 27 28 30 29 30 32 32 30 28 26 26 24 24 22 21
8 7 4 4 3 10 6 4 7 4 2 5 4 3 1 3 6 4 4 5 6 9 14 15 18 22 24 24 22 25 28 28 29 30 31 31 29 27 26 24 24 20 18 17
2 6 5 8 6 2 5 3 3 5 5 3 2 3 3 4 6 8 7 5 4 11 14 17 18 22 26 28 23 26 31 29 29 30 30 31 30 27 24 24 22 19 17 17
4 3 3 4 4 5 4 1 4 3 5 5 3 1 2 6 7 8 8 7 9 15 16 19 21 23 30 32 28 28 28 26 27 28 30 28 29 31 26 22 19 17 16 16
5 8 6 3 2 4 3 4 6 6 3 2 3 1 4 5 7 4 6 8 14 16 18 20 23 23 27 33 33 31 27 26 26 27 24 26 23 25 24 20 19 16 14 12
6 6 5 4 6 4 5 7 4 6 5 4 2 1 2 4 7 8 8 12 16 18 20 21 22 25 31 32 34 31 25 24 25 30 24 22 22 18 21 19 17 10 10 9
Wind_Direction
26 100 185 197 169 130 135 131 152 256 133 162 247 267 275 291 293 279 269 258 262 252 260 255 250 248 243 240 236 233 231 229 226 220 217 216 218 220 224 225 226 225 231 230
53 221 204 123 161 126 102 101 250 280 38 143 348 277 265 269 265 240 258 270 267 283 289 270 262 254 244 242 238 236 234 234 231 222 224 218 222 222 226 227 227 226 227 230
155 211 139 138 147 144 172 160 198 209 42 54 343 305 331 299 269 280 264 277 285 272 285 310 313 282 256 244 240 237 236 234 233 228 219 219 221 227 227 227 227 227 228 228
197 124 138 143 169 130 162 198 152 148 88 210 20 284 310 313 298 328 330 336 337 347 358 353 1 14 358 308 270 254 246 240 236 230 218 217 218 218 225 225 231 228 230 234
228 164 136 138 191 160 197 113 122 91 97 75 319 87 271 339 321 356 25 14 1 7 18 12 9 13 22 21 11 308 262 249 244 236 225 225 222 229 232 233 235 239 240 240
124 50 150 175 86 112 147 82 50 55 87 333 240 144 289 234 158 23 4 13 15 14 11 10 26 30 28 25 23 20 358 272 249 242 236 232 230 229 232 232 232 238 241 241
68 173 52 134 86 42 82 81 357 346 4 220 61 99 243 294 7 32 63 19 12 11 16 12 10 14 25 27 25 21 15 359 280 247 243 242 244 244 245 246 241 241 242 242
151 224 170 190 172 172 183 156 158 196 195 248 85 227 245 114 105 87 51 356 3 25 20 32 23 15 18 16 16 14 8 2 338 291 261 253 251 252 254 257 259 258 256 258
147 245 71 125 141 141 189 179 156 103 28 69 217 287 327 89 90 56 33 35 21 16 11 1 19 28 20 17 13 5 360 353 340 313 284 267 261 257 258 262 264 264 264 264
198 136 56 160 108 49 158 159 75 12 160 258 274 232 216 106 111 61 42 22 5 3 8 0 10 12 10 8 1 357 349 339 338 332 312 295 282 271 266 264 264 265 268 267
143 114 124 114 205 164 133 167 72 129 156 176 181 252 194 149 141 106 78 21 349 354 348 349 3 9 10 11 13 10 1 345 342 340 324 314 303 290 277 270 270 271 273 272
191 132 160 198 264 251 189 179 154 151 218 240 149 261 141 147 148 128 103 360 342 348 358 6 4 10 15 17 19 19 16 10 5 353 336 326 316 306 293 286 285 286 284 281
180 185 93 82 13 344 204 164 139 114 80 192 147 245 198 158 150 58 33 6 15 35 14 356 11 15 9 8 9 9 10 8 3 360 356 345 332 320 310 303 299 295 292 288
80 92 173 207 179 139 170 170 173 148 160 166 220 135 217 279 336 30 40 46 42 17 3 1 12 8 5 3 360 359 0 2 359 354 350 345 338 331 323 313 306 301 297 291
71 141 95 65 42 48 157 162 178 187 183 186 151 202 209 293 325 55 75 60 51 34 21 12 1 354 354 354 352 352 352 351 351 350 348 343 337 330 323 317 313 306 299 293
63 117 114 141 350 348 294 243 198 198 206 265 270 273 198 97 106 50 40 46 32 8 356 351 343 344 343 343 343 342 341 341 340 340 342 341 338 333 331 326 320 313 307 301
146 139 125 187 338 84 311 241 186 184 200 165 212 239 138 133 136 149 150 109 57 348 335 334 329 330 332 334 333 331 329 330 331 331 334 337 336 332 330 329 323 318 313 308
135 113 94 129 95 205 231 6 76 205 218 227 265 242 142 161 196 233 193 147 63 341 338 328 329 331 332 330 331 329 328 329 327 325 327 329 330 329 328 326 325 321 316 309
94 120 105 154 190 311 280 187 179 167 258 213 224 210 149 141 168 282 179 150 41 347 334 332 336 329 327 332 334 328 325 328 326 328 325 325 326 324 325 324 323 322 319 315
68 88 122 127 149 206 247 307 131 108 273 209 179 161 169 84 353 238 176 152 309 319 338 334 335 329 329 334 334 329 327 326 328 326 322 321 322 320 319 320 320 319 316 310
143 126 189 172 208 282 214 216 156 118 245 185 142 158 176 199 199 158 151 252 276 303 330 332 329 323 324 328 329 323 323 319 321 319 318 318 320 318 317 314 316 315 317 313
170 158 193 142 157 259 155 57 180 194 72 156 184 181 247 321 322 295 250 250 286 303 324 326 323 320 322 323 323 317 313 320 316 315 314 316 318 318 316 314 317 316 317 315
211 178 175 182 205 71 184 172 174 140 145 176 135 113 58 321 294 295 283 284 266 303 308 314 311 310 312 317 319 312 315 313 312 312 313 315 316 316 316 314 316 319 318 312
250 156 168 105 220 162 162 146 145 116 120 132 120 171 242 262 272 279 297 306 309 309 307 314 315 308 308 315 316 312 314 312 308 307 311 314 314 314 314 312 311 309 309 308
186 147 158 249 167 111 174 198 150 148 135 36 348 357 294 301 297 285 295 300 308 309 315 318 313 306 304 313 313 315 317 312 307 306 301 305 308 310 309 308 309 307 303 302
168 167 187 215 179 158 161 176 162 164 185 182 156 323 340 314 292 312 303 313 312 313 314 311 308 308 308 310 309 312 315 310 308 306 303 298 295 291 304 301 305 301 297 302